Weather History for Deering, AK

Change the Weather History Date:

Monday, April 1, 2013

  Actual Average (PAOT) Record (PAOT)
Temperature  
Mean Temperature -3 °F -  
Max Temperature 5 °F 13 °F 37 °F (1962)
Min Temperature -11 °F -4 °F -28 °F (1992)
Degree Days  
Heating Degree Days 68 61  
Month to date heating degree days 61  
Since 1 July heating degree days 12290  
Cooling Degree Days 0    
Month to date cooling degree days  
Year to date cooling degree days  
Moisture  
Dew Point -6 °F    
Average Humidity 85    
Maximum Humidity 92    
Minimum Humidity 78    
Precipitation  
Precipitation 0.00 in 0.01 in 0.12 in (2008)
Month to date precipitation 0.01  
Year to date precipitation 1.73  
Snow  
Snow 0.00 in 0.20 in 2.70 in (1967)
Month to date snowfall 0.2  
Since 1 July snowfall 53.7  
Snow Depth -    
Sea Level Pressure  
Sea Level Pressure 30.22 in    
Wind  
Wind Speed 2 mph (East)    
Max Wind Speed 7 mph    
Max Gust Speed -    
Visibility 6 miles    
Events Fog    
T = Trace of Precipitation, MM = Missing Value Source: NWS Daily Summary

Daily Weather History Graph

Daily Weather History Graph

Search for Another Location

Airport:

Trip Planner

Search our weather history database for the weather conditions in past years. The results will help you decide how hot, cold, wet, or windy it might be!

Date:

Astronomy

Apr. 01, 2013 Rise Set
Actual Time 8:02 AM AKDT 9:48 PM AKDT
Civil Twilight 7:08 AM AKDT 10:43 PM AKDT
Nautical Twilight 5:56 AM AKDT 11:56 PM AKDT
Astronomical Twilight 4:07 AM AKDT 1:53 AM AKDT
Moon 5:17 AM AKDT (4/1) 9:53 AM AKDT (4/1)
Length of Visible Light 15h 34m
Length of Day
13h 45m
Waning Gibbous, 65% of the Moon is Illuminated
Apr 1
Waning Gibbous
Apr 2
Last Quarter
Apr 10
New
Apr 18
First Quarter
Apr 25
Full

Hourly Weather History & Observations

Time (AKDT) Temp. Windchill Dew Point Humidity Pressure Visibility Wind Dir Wind Speed Gust Speed Precip Events Conditions
12:44 AM -5.8 °F - -9.4 °F 84% 30.25 in 10.0 mi Calm Calm - N/A   Scattered Clouds
12:53 AM -6.0 °F - -9.0 °F 87% 30.26 in 10.0 mi Calm Calm - N/A   Mostly Cloudy
1:04 AM -5.8 °F - -9.4 °F 84% 30.25 in 1.5 mi Calm Calm - N/A   Overcast
1:44 AM -4.0 °F - -7.6 °F 85% 30.25 in 3.0 mi Calm Calm - N/A   Overcast
1:53 AM -4.0 °F - -7.1 °F 87% 30.26 in 4.0 mi Calm Calm - N/A   Overcast
2:53 AM -7.1 °F - -9.0 °F 91% 30.25 in 5.0 mi Calm Calm - N/A   Overcast
3:53 AM -8.0 °F -16.9 °F -11.0 °F 86% 30.25 in 4.0 mi South 3.5 mph - N/A   Overcast
4:53 AM -8.0 °F -21.0 °F -11.9 °F 83% 30.25 in 10.0 mi SSW 5.8 mph - N/A   Overcast
5:48 AM -9.4 °F - -11.2 °F 92% 30.24 in 1.5 mi Calm Calm - N/A   Overcast
5:53 AM -9.0 °F - -11.9 °F 87% 30.25 in 1.0 mi Calm Calm - N/A   Mist
6:23 AM -9.4 °F - -11.2 °F 92% 30.24 in 3.0 mi Calm Calm - N/A   Overcast
6:53 AM -9.9 °F - -15.0 °F 78% 30.24 in 10.0 mi Calm Calm - N/A   Overcast
7:53 AM -9.0 °F - -14.1 °F 79% 30.23 in 10.0 mi Calm Calm - N/A   Overcast
8:38 AM -7.6 °F - -11.2 °F 84% 30.23 in 10.0 mi Calm Calm - N/A   Mostly Cloudy
8:53 AM -11.9 °F -21.5 °F -16.1 °F 82% 30.23 in 9.0 mi SSW 3.5 mph - N/A   Scattered Clouds
9:04 AM -11.2 °F -23.0 °F -14.8 °F 84% 30.23 in 9.0 mi SSW 4.6 mph - N/A   Mostly Cloudy
9:19 AM -11.2 °F -20.6 °F -14.8 °F 84% 30.22 in 9.0 mi SSW 3.5 mph - N/A   Mostly Cloudy
9:53 AM -9.9 °F -19.2 °F -13.0 °F 86% 30.22 in 10.0 mi South 3.5 mph - N/A   Overcast
10:35 AM -7.6 °F - -9.4 °F 92% 30.22 in 10.0 mi Calm Calm - N/A   Overcast
10:53 AM -7.1 °F - -9.9 °F 87% 30.22 in 4.0 mi Calm Calm - N/A   Overcast
10:58 AM -5.8 °F - -9.4 °F 84% 30.22 in 1.8 mi Calm Calm - N/A   Overcast
11:19 AM -4.0 °F - -5.8 °F 92% 30.22 in 0.8 mi Calm Calm - N/A   Mist
11:53 AM -0.0 °F - -2.9 °F 88% 30.22 in 0.2 mi Calm Calm - N/A Fog Light Freezing Fog
12:36 PM 1.4 °F -8.3 °F -2.2 °F 85% 30.22 in 2.0 mi ENE 4.6 mph - N/A   Overcast
12:41 PM 1.4 °F -8.3 °F -2.2 °F 85% 30.22 in 8.0 mi NE 4.6 mph - N/A   Overcast
12:53 PM 1.0 °F -6.7 °F -2.9 °F 83% 30.22 in 10.0 mi NE 3.5 mph - N/A   Overcast
1:53 PM 1.9 °F -7.6 °F -2.9 °F 80% 30.21 in 9.0 mi NNE 4.6 mph - N/A   Overcast
2:53 PM 1.9 °F -10.6 °F -2.9 °F 80% 30.21 in 9.0 mi ENE 6.9 mph - N/A   Overcast
3:53 PM 3.0 °F -8.0 °F -0.9 °F 84% 30.21 in 2.5 mi East 5.8 mph - N/A   Overcast
4:07 PM 3.2 °F -7.8 °F -0.4 °F 85% 30.20 in 3.0 mi ENE 5.8 mph - N/A   Overcast
4:29 PM 3.2 °F -7.8 °F -0.4 °F 85% 30.20 in 2.0 mi East 5.8 mph - N/A   Overcast
4:53 PM 3.0 °F -6.4 °F -0.0 °F 87% 30.19 in 2.0 mi East 4.6 mph - N/A   Overcast
5:14 PM 3.2 °F -7.8 °F -0.4 °F 85% 30.19 in 3.0 mi ENE 5.8 mph - N/A   Overcast
5:22 PM 3.2 °F -6.2 °F -0.4 °F 85% 30.19 in 1.8 mi East 4.6 mph - N/A   Overcast
5:43 PM 3.2 °F -4.2 °F 1.4 °F 92% 30.19 in 3.0 mi ENE 3.5 mph - N/A   Overcast
5:53 PM 5.0 °F -2.1 °F 1.0 °F 84% 30.19 in 2.0 mi NE 3.5 mph - N/A   Overcast
6:04 PM 3.2 °F -6.2 °F -0.4 °F 85% 30.18 in 6.0 mi ENE 4.6 mph - N/A   Overcast
6:29 PM 3.2 °F -6.2 °F -0.4 °F 85% 30.18 in 10.0 mi ENE 4.6 mph - N/A   Scattered Clouds
6:53 PM 3.9 °F -5.3 °F -0.0 °F 84% 30.18 in 10.0 mi East 4.6 mph - N/A   Clear
7:53 PM 3.9 °F -3.4 °F -0.9 °F 80% 30.18 in 10.0 mi East 3.5 mph - N/A   Clear
8:53 PM 1.9 °F -7.6 °F -2.9 °F 80% 30.18 in 10.0 mi ENE 4.6 mph - N/A   Clear
9:53 PM 3.9 °F -5.3 °F -0.0 °F 84% 30.18 in 10.0 mi ESE 4.6 mph - N/A   Clear
10:53 PM -2.9 °F - -7.1 °F 82% 30.17 in 10.0 mi Calm Calm - N/A   Clear
11:53 PM -4.0 °F - -8.0 °F 83% 30.18 in 10.0 mi Calm Calm - N/A   Clear